This demonstration page uses our WeatherBlox Daily Observations layout. Learn more.

Left ArrowRight Arrow

39.51506, -84.39828

Hourly Observations for June 19, 2022

Temp ( °F °C ) Dew Point ( °F °C ) Humidity (%) Winds ( mph kmh ) Pressure ( in mb ) Visibility ( mi km ) Precip ( " mm )
12:15 am 00:15 Clear 56 13.3 50 10.2 82 82 NNW 3 6 30.21 1023 10 16 0.00 0.00
12:35 am 00:35 Clear 54 12.4 51 10.5 88 88 Calm 30.21 1023 10 16 0.00 0.00
12:55 am 00:55 Clear 56 13.1 50 9.9 81 81 Calm 30.22 1023 10 16 0.00 0.00
1:15 am 01:15 Clear 55 12.7 50 9.8 83 83 Calm 30.22 1023 10 16 0.00 0.00
1:35 am 01:35 Clear 55 13 49 9.5 79 79 Calm 30.22 1023 10 16 0.00 0.00
1:55 am 01:55 Clear 54 12.1 50 9.9 87 87 Calm 30.22 1023 10 16 0.00 0.00
2:15 am 02:15 Clear 53 11.8 48 8.7 81 81 N 3 6 30.22 1024 10 16 0.00 0.00
2:35 am 02:35 Clear 51 10.8 49 9.4 91 91 Calm 30.24 1024 10 16 0.00 0.00
2:55 am 02:55 Clear 53 11.4 48 8.9 85 85 NNE 3 6 30.24 1024 10 16 0.00 0.00
3:15 am 03:15 Clear 53 11.7 48 9.1 84 84 Calm 30.23 1024 10 16 0.00 0.00
3:35 am 03:35 Clear 52 11.1 48 8.8 86 86 N 5 7 30.23 1024 10 16 0.00 0.00
3:55 am 03:55 Clear 50 10.2 48 9.1 93 93 Calm 30.23 1024 10 16 0.00 0.00
4:15 am 04:15 Clear 50 10.2 49 9.5 95 95 NNE 3 6 30.24 1024 10 16 0.00 0.00
4:35 am 04:35 Clear 51 10.4 49 9.4 94 94 N 5 7 30.25 1024 10 16 0.00 0.00
4:55 am 04:55 Clear 51 10.3 48 8.8 91 91 N 5 7 30.26 1025 10 16 0.00 0.00
5:15 am 05:15 Clear 50 10.2 48 8.8 91 91 N 3 6 30.26 1025 10 16 0.00 0.00
5:35 am 05:35 Clear 51 10.7 46 8 84 84 N 3 6 30.27 1025 10 16 0.00 0.00
5:55 am 05:55 Clear 49 9.7 48 8.7 94 94 Calm 30.27 1025 10 16 0.00 0.00
6:15 am 06:15 Sunny 49 9.5 48 8.8 95 95 Calm 30.29 1026 10 16 0.00 0.00
6:35 am 06:35 Sunny 49 9.5 48 8.7 95 95 Calm 30.30 1026 10 16 0.00 0.00
6:55 am 06:55 Sunny 50 10 48 8.8 92 92 Calm 30.30 1026 10 16 0.00 0.00
7:15 am 07:15 Sunny 51 10.8 49 9.7 93 93 Calm 30.30 1026 10 16 0.00 0.00
7:35 am 07:35 Sunny 54 12.1 51 10.6 91 91 N 3 6 30.29 1026 10 16 0.00 0.00
7:55 am 07:55 Sunny 56 13.5 51 10.4 82 82 Calm 30.30 1026 10 16 0.00 0.00
8:15 am 08:15 Sunny 58 14.6 50 9.9 74 74 NE 3 6 30.30 1026 10 16 0.00 0.00
8:35 am 08:35 Sunny 60 15.7 48 8.9 64 64 NE 3 6 30.30 1026 10 16 0.00 0.00
8:55 am 08:55 Sunny 62 16.6 47 8.5 59 59 NNE 5 7 30.31 1027 10 16 0.00 0.00
9:15 am 09:15 Sunny 64 17.8 40 4.6 42 42 ENE 7 11 30.31 1026 10 16 0.00 0.00
9:35 am 09:35 Sunny 65 18.5 39 3.8 38 38 E 8 13 30.32 1027 10 16 0.00 0.00
9:55 am 09:55 Sunny 66 19.1 39 3.9 37 37 NNE 8 13 30.32 1027 10 16 0.00 0.00
10:15 am 10:15 Sunny 68 20.1 38 3.2 33 33 ENE 8 13 30.31 1027 10 16 0.00 0.00
10:35 am 10:35 Sunny 68 20 37 2.5 31 31 ENE 7 11 30.31 1027 10 16 0.00 0.00
10:55 am 10:55 Sunny 69 20.7 35 1.8 29 29 E 9 15 30.31 1027 10 16 0.00 0.00
11:15 am 11:15 Sunny 70 21 38 3.5 32 32 NE 8 13 30.30 1026 10 16 0.00 0.00
11:35 am 11:35 Sunny 70 21 35 1.7 28 28 SE 5 7 30.30 1026 10 16 0.00 0.00
11:55 am 11:55 Sunny 71 21.4 38 3.1 30 30 E 5 7 30.30 1026 10 16 0.00 0.00
12:15 pm 12:15 Sunny 71 21.9 39 4.1 31 31 E 5 7 30.29 1026 10 16 0.00 0.00
12:35 pm 12:35 Sunny 73 22.5 37 2.7 27 27 SE 6 9 30.29 1026 10 16 0.00 0.00
12:55 pm 12:55 Sunny 72 22.3 41 4.8 32 32 E 9 15 30.29 1026 10 16 0.00 0.00
1:15 pm 13:15 Sunny 72 22.4 40 4.4 31 31 NNE 8 13 30.29 1026 10 16 0.00 0.00
1:35 pm 13:35 Sunny 73 22.9 40 4.7 31 31 E 8 13 30.28 1025 10 16 0.00 0.00
1:55 pm 13:55 Sunny 73 22.6 39 3.9 30 30 NW 7 11 30.28 1025 10 16 0.00 0.00
2:15 pm 14:15 Sunny 74 23.2 39 4 29 29 NE 6 9 30.27 1025 10 16 0.00 0.00
2:35 pm 14:35 Sunny 75 23.9 41 4.9 29 29 E 6 9 30.27 1025 10 16 0.00 0.00
2:55 pm 14:55 Sunny 75 23.9 37 3 26 26 Calm 30.25 1024 10 16 0.00 0.00
3:15 pm 15:15 Sunny 76 24.4 41 5 29 29 N 7 11 30.24 1024 10 16 0.00 0.00
3:35 pm 15:35 Sunny 76 24.2 38 3.1 25 25 N 5 7 30.23 1024 10 16 0.00 0.00
3:55 pm 15:55 Sunny 77 24.8 42 5.4 29 29 NNE 5 7 30.23 1024 10 16 0.00 0.00
4:15 pm 16:15 Sunny 77 24.8 41 5 28 28 N 6 9 30.21 1023 10 16 0.00 0.00
4:35 pm 16:35 Sunny 77 25 40 4.2 26 26 Calm 30.20 1023 10 16 0.00 0.00
4:55 pm 16:55 Sunny 77 24.9 40 4.6 27 27 N 5 7 30.20 1023 10 16 0.00 0.00
5:15 pm 17:15 Sunny 78 25.3 40 4.7 27 27 N 5 7 30.19 1022 10 16 0.00 0.00
5:35 pm 17:35 Sunny 78 25.3 40 4.2 26 26 NNE 6 9 30.19 1022 10 16 0.00 0.00
5:55 pm 17:55 Sunny 78 25.5 38 3.3 24 24 Calm 30.19 1022 10 16 0.00 0.00
6:15 pm 18:15 Sunny 78 25.4 42 5.6 28 28 NW 5 7 30.19 1022 10 16 0.00 0.00
6:35 pm 18:35 Sunny 78 25.3 40 4.2 26 26 NNW 5 7 30.18 1022 10 16 0.00 0.00
6:55 pm 18:55 Sunny 78 25.3 40 4.5 26 26 NW 3 6 30.18 1022 10 16 0.00 0.00
7:15 pm 19:15 Sunny 77 25.2 42 5.8 29 29 Calm 30.19 1022 10 16 0.00 0.00
7:35 pm 19:35 Sunny 76 24.7 44 6.9 32 32 NNW 3 6 30.19 1022 10 16 0.00 0.00
7:55 pm 19:55 Sunny 76 24.4 45 7.2 33 33 Calm 30.18 1022 10 16 0.00 0.00
8:15 pm 20:15 Sunny 73 22.5 57 13.8 58 58 W 3 6 30.19 1022 10 16 0.00 0.00
8:35 pm 20:35 Sunny 71 21.8 57 13.8 61 61 Calm 30.19 1022 10 16 0.00 0.00
8:55 pm 20:55 Sunny 67 19.2 56 13.3 69 69 W 3 6 30.20 1023 10 16 0.00 0.00
9:15 pm 21:15 Clear 64 17.9 55 12.6 71 71 W 3 6 30.19 1022 10 16 0.00 0.00
9:35 pm 21:35 Clear 64 17.6 56 13.2 76 76 Calm 30.19 1022 10 16 0.00 0.00
9:55 pm 21:55 Clear 62 16.7 53 11.9 73 73 NNW 3 6 30.20 1023 10 16 0.00 0.00
10:15 pm 22:15 Clear 60 15.6 54 12.3 81 81 NNW 3 6 30.21 1023 10 16 0.00 0.00
10:35 pm 22:35 Clear 60 15.3 55 13 86 86 Calm 30.21 1023 10 16 0.00 0.00
10:55 pm 22:55 Clear 60 15.6 54 12 79 79 Calm 30.21 1023 10 16 0.00 0.00
11:15 pm 23:15 Clear 59 14.8 53 11.6 81 81 Calm 30.22 1023 10 16 0.00 0.00
11:35 pm 23:35 Clear 58 14.3 53 11.5 83 83 Calm 30.21 1023 10 16 0.00 0.00
11:55 pm 23:55 Clear 58 14.6 53 11.8 83 83 N 3 6 30.21 1023 10 16 0.00 0.00

Powered by AerisWeather